Location: Unspecified
(0.0000°N, 0.0000°E)
Time: 10:00:21
(UTC+02:00)

PROBA 2 - Visible Passes

Search period start: 29 August 2014 00:00
Search period end: 08 September 2014 00:00
Orbit: 708 x 726 km, 98.3° (Epoch: 25 August)

Date Brightness Start Highest point End Pass type
(mag) Time Alt. Az. Time Alt. Az. Time Alt. Az.
29 Aug ? 07:36:27 10° SE 07:40:22 25° ENE 07:44:17 10° NNE visible
30 Aug ? 20:46:40 10° N 20:51:05 38° WNW 20:55:30 10° SW visible
31 Aug ? 07:33:09 10° SE 07:36:54 23° ENE 07:40:38 10° NNE visible
01 Sep ? 20:43:06 10° N 20:47:37 42° WNW 20:52:07 10° SSW visible
02 Sep ? 07:29:53 10° SE 07:33:26 20° ENE 07:36:58 10° NNE visible
03 Sep ? 20:39:33 10° N 20:44:08 47° WNW 20:48:43 10° SSW visible
04 Sep ? 07:26:39 10° ESE 07:29:58 18° ENE 07:33:16 10° NE visible
04 Sep ? 21:29:54 10° WNW 21:31:15 11° WNW 21:32:36 10° W visible
05 Sep ? 20:36:01 10° N 20:40:39 52° WNW 20:45:18 10° SSW visible
06 Sep ? 07:23:27 10° ESE 07:26:29 17° ENE 07:29:31 10° NE visible
06 Sep ? 21:25:47 10° NW 21:27:47 13° WNW 21:29:46 10° WSW visible
07 Sep ? 20:32:29 10° N 20:37:10 58° WNW 20:41:52 10° SSW visible
